Time,TemperatureF,DewpointF,PressureIn,WindDirection,WindDirectionDegrees,WindSpeedMPH,WindSpeedGustMPH,Humidity,HourlyPrecipIn,Conditions,Clouds,dailyrainin,SoftwareType,DateUTC
2013-02-08 00:02:00,33.0,31.0,-100.00,West,275,1.0,2.0,92,0.20,,,-99.99,,2013-02-08 05:02:00,
2013-02-08 00:12:00,33.0,31.0,-100.00,West,275,1.0,2.0,92,0.20,,,-99.99,,2013-02-08 05:12:00,
2013-02-08 00:22:00,33.0,31.0,-100.00,SW,223,1.0,3.0,95,0.09,,,-99.99,,2013-02-08 05:22:00,
2013-02-08 00:32:00,33.0,31.0,-100.00,SW,223,1.0,3.0,95,0.09,,,-99.99,,2013-02-08 05:32:00,
2013-02-08 00:42:00,33.0,31.0,-100.00,SW,223,1.0,3.0,95,0.09,,,-99.99,,2013-02-08 05:42:00,
2013-02-08 01:22:00,32.0,31.0,-100.00,NE,41,0.0,2.0,96,0.27,,,-99.99,,2013-02-08 06:22:00,
2013-02-08 01:32:00,32.0,31.0,-100.00,NE,41,0.0,2.0,96,0.27,,,-99.99,,2013-02-08 06:32:00,
2013-02-08 01:42:00,32.0,31.0,-100.00,NE,37,2.0,4.0,96,0.06,,,-99.99,,2013-02-08 06:42:00,
2013-02-08 01:52:00,32.0,31.0,-100.00,NE,37,2.0,4.0,96,0.06,,,-99.99,,2013-02-08 06:52:00,
2013-02-08 02:01:00,32.0,31.0,-100.00,NNE,30,3.0,5.0,96,0.03,,,-99.99,,2013-02-08 07:01:00,
2013-02-08 02:12:00,32.0,31.0,-100.00,NNE,30,3.0,5.0,96,0.03,,,-99.99,,2013-02-08 07:12:00,
2013-02-08 02:22:00,32.0,31.0,-100.00,NE,37,3.0,5.0,96,0.01,,,-99.99,,2013-02-08 07:22:00,
2013-02-08 02:32:00,32.0,31.0,-100.00,NE,37,3.0,5.0,96,0.01,,,-99.99,,2013-02-08 07:32:00,
2013-02-08 02:42:00,32.0,31.0,-100.00,NNE,31,2.0,4.0,96,0.03,,,-99.99,,2013-02-08 07:42:00,
2013-02-08 02:52:00,32.0,31.0,-100.00,NNE,31,2.0,4.0,96,0.03,,,-99.99,,2013-02-08 07:52:00,
2013-02-08 03:01:00,32.0,31.0,-100.00,NNE,31,2.0,4.0,96,0.03,,,-99.99,,2013-02-08 08:01:00,
2013-02-08 03:22:00,32.0,31.0,-100.00,NNE,20,2.0,4.0,96,0.26,,,-99.99,,2013-02-08 08:22:00,
2013-02-08 03:32:00,32.0,31.0,-100.00,NNE,20,2.0,4.0,96,0.03,,,-99.99,,2013-02-08 08:32:00,
2013-02-08 03:42:00,32.0,31.0,-100.00,NNE,20,2.0,4.0,96,0.03,,,-99.99,,2013-02-08 08:42:00,
2013-02-08 03:52:00,32.0,31.0,-100.00,NNE,20,2.0,4.0,96,0.03,,,-99.99,,2013-02-08 08:52:00,
2013-02-08 04:03:00,32.0,31.0,-100.00,NE,38,2.0,4.0,97,0.00,,,-99.99,,2013-02-08 09:03:00,
2013-02-08 04:11:00,32.0,31.0,-100.00,NE,38,2.0,4.0,97,0.00,,,-99.99,,2013-02-08 09:11:00,
2013-02-08 04:21:00,32.0,31.0,-100.00,NE,35,4.0,5.0,97,0.00,,,-99.99,,2013-02-08 09:21:00,
2013-02-08 04:32:00,32.0,31.0,-100.00,NE,35,4.0,5.0,97,0.00,,,-99.99,,2013-02-08 09:32:00,
2013-02-08 04:42:00,32.0,31.0,-100.00,NE,42,3.0,5.0,97,0.00,,,-99.99,,2013-02-08 09:42:00,
2013-02-08 04:52:00,32.0,31.0,-100.00,NE,42,3.0,5.0,97,0.00,,,-99.99,,2013-02-08 09:52:00,
2013-02-08 05:01:00,32.0,31.0,-100.00,NE,42,3.0,5.0,97,0.00,,,-99.99,,2013-02-08 10:01:00,
2013-02-08 05:22:00,32.0,31.0,-100.00,NW,305,0.0,0.0,97,0.00,,,-99.99,,2013-02-08 10:22:00,
2013-02-08 05:32:00,32.0,31.0,-100.00,NW,305,0.0,0.0,97,0.00,,,-99.99,,2013-02-08 10:32:00,
2013-02-08 05:42:00,32.0,31.0,-100.00,WNW,292,0.0,3.0,97,0.00,,,-99.99,,2013-02-08 10:42:00,
2013-02-08 05:52:00,32.0,31.0,-100.00,WNW,292,0.0,3.0,97,0.00,,,-99.99,,2013-02-08 10:52:00,
2013-02-08 06:02:00,32.0,32.0,-100.00,NE,38,2.0,3.0,97,0.00,,,-99.99,,2013-02-08 11:02:00,
2013-02-08 06:11:00,32.0,32.0,-100.00,NE,38,2.0,3.0,97,0.00,,,-99.99,,2013-02-08 11:11:00,
2013-02-08 06:22:00,33.0,31.0,-100.00,NE,52,2.0,4.0,96,0.00,,,-99.99,,2013-02-08 11:22:00,
2013-02-08 06:32:00,33.0,31.0,-100.00,NNW,337,1.0,4.0,96,0.00,,,-99.99,,2013-02-08 11:32:00,
2013-02-08 06:42:00,33.0,32.0,-100.00,North,6,1.0,4.0,96,0.00,,,-99.99,,2013-02-08 11:42:00,
2013-02-08 06:52:00,33.0,32.0,-100.00,North,6,1.0,4.0,96,0.00,,,-99.99,,2013-02-08 11:52:00,
2013-02-08 07:02:00,33.0,31.0,-100.00,NE,54,2.0,4.0,95,0.00,,,-99.99,,2013-02-08 12:02:00,
2013-02-08 07:11:00,33.0,31.0,-100.00,NE,54,2.0,4.0,95,0.00,,,-99.99,,2013-02-08 12:11:00,
2013-02-08 07:22:00,33.0,31.0,-100.00,NNE,20,3.0,6.0,92,0.00,,,-99.99,,2013-02-08 12:22:00,
2013-02-08 07:33:00,33.0,31.0,-100.00,NNE,20,3.0,6.0,92,0.00,,,-99.99,,2013-02-08 12:33:00,
2013-02-08 07:42:00,34.0,31.0,-100.00,NNE,24,4.0,6.0,90,0.00,,,-99.99,,2013-02-08 12:42:00,
2013-02-08 07:52:00,34.0,31.0,-100.00,NNE,24,4.0,6.0,90,0.00,,,-99.99,,2013-02-08 12:52:00,
2013-02-08 08:02:00,34.0,31.0,-100.00,NNE,24,4.0,6.0,90,0.00,,,-99.99,,2013-02-08 13:02:00,
2013-02-08 08:43:00,33.0,31.0,-100.00,WNW,288,1.0,3.0,94,0.00,,,-99.99,,2013-02-08 13:43:00,
2013-02-08 08:52:00,33.0,31.0,-100.00,WNW,288,1.0,3.0,94,0.00,,,-99.99,,2013-02-08 13:52:00,
2013-02-08 09:02:00,33.0,32.0,-100.00,NW,309,1.0,3.0,93,0.00,,,-99.99,,2013-02-08 14:02:00,
2013-02-08 09:11:00,33.0,32.0,-100.00,NW,309,1.0,3.0,93,0.00,,,-99.99,,2013-02-08 14:11:00,
2013-02-08 09:22:00,33.0,32.0,-100.00,WSW,254,2.0,4.0,95,0.00,,,-99.99,,2013-02-08 14:22:00,
2013-02-08 09:32:00,33.0,32.0,-100.00,WSW,253,2.0,3.0,94,0.00,,,-99.99,,2013-02-08 14:32:00,
2013-02-08 09:42:00,33.0,32.0,-100.00,WSW,253,2.0,3.0,94,0.00,,,-99.99,,2013-02-08 14:42:00,
2013-02-08 09:52:00,33.0,32.0,-100.00,WSW,241,1.0,3.0,95,0.00,,,-99.99,,2013-02-08 14:52:00,
2013-02-08 10:02:00,33.0,32.0,-100.00,WSW,241,1.0,3.0,95,0.00,,,-99.99,,2013-02-08 15:02:00,
2013-02-08 10:12:00,33.0,32.0,-100.00,WSW,241,1.0,3.0,95,0.00,,,-99.99,,2013-02-08 15:12:00,
2013-02-08 10:22:00,35.0,33.0,-100.00,WSW,237,1.0,3.0,94,0.00,,,-99.99,,2013-02-08 15:22:00,
2013-02-08 10:32:00,35.0,33.0,-100.00,WSW,237,1.0,3.0,94,0.00,,,-99.99,,2013-02-08 15:32:00,
2013-02-08 10:42:00,35.0,33.0,-100.00,WSW,237,1.0,3.0,94,0.00,,,-99.99,,2013-02-08 15:42:00,
2013-02-08 11:02:00,36.0,33.0,-100.00,SW,227,2.0,5.0,89,0.00,,,-99.99,,2013-02-08 16:02:00,
2013-02-08 11:11:00,36.0,33.0,-100.00,SW,227,2.0,5.0,89,0.00,,,-99.99,,2013-02-08 16:11:00,
2013-02-08 11:22:00,36.0,33.0,-100.00,SSW,203,3.0,6.0,90,0.00,,,-99.99,,2013-02-08 16:22:00,
2013-02-08 11:32:00,36.0,33.0,-100.00,SSW,203,3.0,6.0,90,0.00,,,-99.99,,2013-02-08 16:32:00,
2013-02-08 11:42:00,36.0,33.0,-100.00,SSW,209,2.0,4.0,87,0.00,,,-99.99,,2013-02-08 16:42:00,
2013-02-08 11:52:00,36.0,33.0,-100.00,SSW,209,2.0,4.0,87,0.00,,,-99.99,,2013-02-08 16:52:00,
2013-02-08 12:04:00,37.0,33.0,-100.00,SSW,208,3.0,5.0,86,0.00,,,-99.99,,2013-02-08 17:04:00,
2013-02-08 12:13:00,37.0,33.0,-100.00,SSW,208,3.0,5.0,86,0.00,,,-99.99,,2013-02-08 17:13:00,
2013-02-08 12:23:00,37.0,33.0,-100.00,SSW,200,3.0,5.0,86,0.00,,,-99.99,,2013-02-08 17:23:00,
2013-02-08 12:33:00,37.0,33.0,-100.00,SSW,200,3.0,5.0,86,0.00,,,-99.99,,2013-02-08 17:33:00,
2013-02-08 12:42:00,38.0,34.0,-100.00,South,189,3.0,6.0,85,0.00,,,-99.99,,2013-02-08 17:42:00,
2013-02-08 12:53:00,38.0,34.0,-100.00,South,189,3.0,6.0,85,0.00,,,-99.99,,2013-02-08 17:53:00,
2013-02-08 13:03:00,39.0,34.0,-100.00,South,191,3.0,7.0,82,0.00,,,-99.99,,2013-02-08 18:03:00,
2013-02-08 13:12:00,39.0,34.0,-100.00,South,191,3.0,7.0,82,0.00,,,-99.99,,2013-02-08 18:12:00,
2013-02-08 13:25:00,40.0,35.0,-100.00,South,186,4.0,8.0,83,0.00,,,-99.99,,2013-02-08 18:25:00,
2013-02-08 13:36:00,40.0,35.0,-100.00,South,186,4.0,8.0,83,0.00,,,-99.99,,2013-02-08 18:36:00,
2013-02-08 13:44:00,42.0,35.0,-100.00,South,179,4.0,7.0,77,0.00,,,-99.99,,2013-02-08 18:44:00,
2013-02-08 13:53:00,42.0,35.0,-100.00,South,179,4.0,7.0,77,0.00,,,-99.99,,2013-02-08 18:53:00,
2013-02-08 14:02:00,40.0,35.0,-100.00,SSW,193,4.0,7.0,81,0.00,,,-99.99,,2013-02-08 19:02:00,
2013-02-08 14:12:00,40.0,35.0,-100.00,SSW,193,4.0,7.0,81,0.00,,,-99.99,,2013-02-08 19:12:00,
2013-02-08 14:22:00,41.0,35.0,-100.00,WSW,240,2.0,4.0,77,0.00,,,-99.99,,2013-02-08 19:22:00,
2013-02-08 14:33:00,41.0,35.0,-100.00,WSW,240,2.0,4.0,77,0.00,,,-99.99,,2013-02-08 19:33:00,
2013-02-08 14:42:00,44.0,35.0,-100.00,SSW,212,3.0,5.0,72,0.00,,,0.48,,2013-02-08 19:42:00,
2013-02-08 14:52:00,44.0,35.0,-100.00,SSW,212,3.0,5.0,72,0.00,,,0.48,,2013-02-08 19:52:00,
2013-02-08 15:02:00,44.0,36.0,-100.00,SW,234,3.0,6.0,73,0.00,,,0.48,,2013-02-08 20:02:00,
2013-02-08 15:12:00,44.0,36.0,-100.00,SW,234,3.0,6.0,73,0.00,,,0.48,,2013-02-08 20:12:00,
2013-02-08 15:22:00,44.0,37.0,-100.00,SW,215,3.0,5.0,74,0.00,,,0.48,,2013-02-08 20:22:00,
2013-02-08 15:32:00,44.0,37.0,-100.00,SW,215,3.0,5.0,74,0.00,,,0.48,,2013-02-08 20:32:00,
2013-02-08 15:42:00,46.0,38.0,-100.00,South,188,4.0,8.0,72,0.00,,,0.48,,2013-02-08 20:42:00,
2013-02-08 15:53:00,46.0,38.0,-100.00,South,188,4.0,8.0,72,0.00,,,0.48,,2013-02-08 20:53:00,
2013-02-08 16:02:00,49.0,34.0,-100.00,SSW,193,10.0,19.0,57,0.00,,,0.48,,2013-02-08 21:02:00,
2013-02-08 16:12:00,49.0,34.0,-100.00,SSW,193,10.0,19.0,57,0.00,,,0.48,,2013-02-08 21:12:00,
2013-02-08 16:22:00,49.0,33.0,-100.00,SSW,195,14.0,22.0,53,0.00,,,0.48,,2013-02-08 21:22:00,
2013-02-08 16:33:00,49.0,33.0,-100.00,SSW,195,14.0,22.0,53,0.00,,,0.48,,2013-02-08 21:33:00,
2013-02-08 16:42:00,49.0,33.0,-100.00,SSW,192,13.0,21.0,55,0.00,,,0.48,,2013-02-08 21:42:00,
2013-02-08 16:52:00,49.0,33.0,-100.00,SSW,192,13.0,21.0,55,0.00,,,0.48,,2013-02-08 21:52:00,
2013-02-08 17:02:00,45.0,30.0,-100.00,SSW,193,14.0,24.0,55,0.00,,,0.48,,2013-02-08 22:02:00,
2013-02-08 17:12:00,45.0,30.0,-100.00,SSW,193,14.0,24.0,55,0.00,,,0.48,,2013-02-08 22:12:00,
2013-02-08 17:22:00,43.0,29.0,-100.00,SSW,200,15.0,26.0,56,0.00,,,0.48,,2013-02-08 22:22:00,
2013-02-08 17:32:00,43.0,29.0,-100.00,SSW,200,15.0,26.0,56,0.00,,,0.48,,2013-02-08 22:32:00,
2013-02-08 17:42:00,42.0,28.0,-100.00,SSW,195,10.0,21.0,57,0.00,,,0.48,,2013-02-08 22:42:00,
2013-02-08 17:52:00,42.0,28.0,-100.00,SSW,195,10.0,21.0,57,0.00,,,0.48,,2013-02-08 22:52:00,
2013-02-08 18:02:00,42.0,28.0,-100.00,SSW,195,10.0,21.0,57,0.00,,,0.48,,2013-02-08 23:02:00,
2013-02-08 18:22:00,42.0,28.0,-100.00,SSW,195,11.0,18.0,59,0.00,,,0.48,,2013-02-08 23:22:00,
2013-02-08 18:32:00,41.0,29.0,-100.00,SSW,195,10.0,16.0,61,0.00,,,0.48,,2013-02-08 23:32:00,
2013-02-08 18:42:00,41.0,29.0,-100.00,SSW,195,10.0,16.0,61,0.00,,,0.48,,2013-02-08 23:42:00,
2013-02-08 18:52:00,41.0,29.0,-100.00,SSW,195,10.0,16.0,61,0.00,,,0.48,,2013-02-08 23:52:00,
2013-02-08 19:02:00,41.0,29.0,-100.00,SSW,195,10.0,16.0,61,0.00,,,0.48,,2013-02-09 00:02:00,
2013-02-08 19:22:00,41.0,27.0,-100.00,South,188,9.0,15.0,57,0.00,,,0.48,,2013-02-09 00:22:00,
2013-02-08 19:32:00,41.0,27.0,-100.00,South,188,9.0,15.0,57,0.00,,,0.48,,2013-02-09 00:32:00,
2013-02-08 19:42:00,41.0,27.0,-100.00,SSW,193,10.0,19.0,57,0.00,,,0.48,,2013-02-09 00:42:00,
2013-02-08 19:52:00,41.0,27.0,-100.00,SSW,193,10.0,19.0,57,0.00,,,0.48,,2013-02-09 00:52:00,
2013-02-08 20:02:00,41.0,27.0,-100.00,SSW,193,10.0,19.0,57,0.00,,,0.48,,2013-02-09 01:02:00,
2013-02-08 20:22:00,40.0,26.0,-100.00,South,188,11.0,20.0,56,0.00,,,0.48,,2013-02-09 01:22:00,
2013-02-08 20:32:00,40.0,26.0,-100.00,SSW,192,10.0,21.0,58,0.00,,,0.48,,2013-02-09 01:32:00,
2013-02-08 20:42:00,40.0,26.0,-100.00,SSW,192,10.0,21.0,58,0.00,,,0.48,,2013-02-09 01:42:00,
2013-02-08 20:52:00,40.0,26.0,-100.00,SSW,192,10.0,21.0,58,0.00,,,0.48,,2013-02-09 01:52:00,
2013-02-08 21:01:00,40.0,26.0,-100.00,South,189,9.0,17.0,59,0.00,,,0.48,,2013-02-09 02:01:00,
2013-02-08 21:11:00,40.0,26.0,-100.00,South,189,9.0,17.0,59,0.00,,,0.48,,2013-02-09 02:11:00,
2013-02-08 21:22:00,39.0,25.0,-100.00,SSW,195,13.0,24.0,57,0.00,,,0.48,,2013-02-09 02:22:00,
2013-02-08 21:32:00,39.0,25.0,-100.00,SSW,195,13.0,24.0,57,0.00,,,0.48,,2013-02-09 02:32:00,
2013-02-08 21:42:00,38.0,25.0,-100.00,SSW,192,13.0,24.0,59,0.00,,,0.48,,2013-02-09 02:42:00,
2013-02-08 21:53:00,38.0,25.0,-100.00,SSW,192,13.0,24.0,59,0.00,,,0.48,,2013-02-09 02:53:00,
2013-02-08 22:02:00,38.0,24.0,-100.00,South,191,14.0,26.0,56,0.00,,,0.48,,2013-02-09 03:02:00,
2013-02-08 22:11:00,38.0,24.0,-100.00,South,191,14.0,26.0,56,0.00,,,0.48,,2013-02-09 03:11:00,
2013-02-08 22:22:00,38.0,23.0,-100.00,SSW,193,15.0,29.0,55,0.00,,,0.48,,2013-02-09 03:22:00,
2013-02-08 22:32:00,38.0,23.0,-100.00,SSW,193,15.0,29.0,55,0.00,,,0.48,,2013-02-09 03:32:00,
2013-02-08 22:42:00,38.0,23.0,-100.00,SSW,193,15.0,29.0,55,0.00,,,0.48,,2013-02-09 03:42:00,
2013-02-08 23:03:00,37.0,24.0,-100.00,SSW,193,14.0,25.0,57,0.00,,,0.47,,2013-02-09 04:03:00,
2013-02-08 23:12:00,37.0,24.0,-100.00,SSW,193,14.0,25.0,57,0.00,,,0.47,,2013-02-09 04:12:00,
2013-02-08 23:23:00,37.0,24.0,-100.00,SSW,196,16.0,26.0,58,0.00,,,0.46,,2013-02-09 04:23:00,
2013-02-08 23:32:00,37.0,24.0,-100.00,SSW,196,16.0,26.0,58,0.00,,,0.46,,2013-02-09 04:32:00,
2013-02-08 23:42:00,37.0,23.0,-100.00,South,186,11.0,18.0,57,0.00,,,0.44,,2013-02-09 04:42:00,
2013-02-08 23:52:00,37.0,23.0,-100.00,South,186,11.0,18.0,57,0.00,,,0.44,,2013-02-09 04:52:00,